Groton, CT

4:35 PM EDT on May 29, 2017 (GMT -0400)
Groton-New London

Weather History for KGON - August, 2012

Change the Weather History Date:

Friday, August 3, 2012

  Actual Average Record
Temperature  
Mean Temperature 76 °F -  
Max Temperature 82 °F 82 °F 93 °F (1975)
Min Temperature 69 °F 64 °F 50 °F (1959)
Cooling Degree Days 10    
Growing Degree Days 26 (Base 50)    
Moisture  
Dew Point 71 °F    
Average Humidity 88    
Maximum Humidity 94    
Minimum Humidity 74    
Precipitation  
Precipitation 0.00 in - - ()
Sea Level Pressure  
Sea Level Pressure 29.99 in    
Wind  
Wind Speed 2 mph (SW)    
Max Wind Speed 10 mph    
Max Gust Speed -    
Visibility 4 miles    
Events Fog    
Averages and records for this station are not official NWS values.
T = Trace of Precipitation, MM = Missing Value Source: NWS Daily Summary

Daily Weather History Graph

Daily Weather History Graph

Search for Another Location

Airport or City:

Trip Planner

Search our weather history database for the weather conditions in past years. The results will help you decide how hot, cold, wet, or windy it might be!

Date:

Astronomy

Aug. 03, 2012 Rise Set
Actual Time 5:45 AM EDT 8:02 PM EDT
Civil Twilight 5:14 AM EDT 8:32 PM EDT
Nautical Twilight 4:36 AM EDT 9:10 PM EDT
Astronomical Twilight 3:54 AM EDT 9:52 PM EDT
Moon 8:37 PM EDT (8/3) 7:27 AM EDT (8/3)
Length of Visible Light 15h 18m
Length of Day
14h 16m
Full, 97% of the Moon is Illuminated
Aug 3
Full
Aug 9
Last Quarter
Aug 17
New
Aug 24
First Quarter
Aug 31
Full

Hourly Weather History & Observations

Time (EDT) Temp. Heat Index Dew Point Humidity Pressure Visibility Wind Dir Wind Speed Gust Speed Precip Events Conditions
12:56 AM 71.1 °F - 68.0 °F 90% 29.93 in 5.0 mi Calm Calm - N/A   Clear
1:56 AM 71.1 °F - 69.1 °F 93% 29.93 in 4.0 mi Calm Calm - N/A   Clear
2:56 AM 72.0 °F - 69.1 °F 91% 29.93 in 6.0 mi Calm Calm - N/A   Clear
3:56 AM 72.0 °F - 69.1 °F 91% 29.93 in 5.0 mi South 3.5 mph - N/A   Clear
4:56 AM 71.1 °F - 68.0 °F 90% 29.94 in 4.0 mi Calm Calm - N/A   Clear
5:16 AM 71.6 °F - 69.8 °F 94% 29.94 in 2.0 mi Calm Calm - N/A   Clear
5:23 AM 71.6 °F - 69.8 °F 94% 29.94 in 1.5 mi Calm Calm - N/A   Clear
5:34 AM 71.6 °F - 69.8 °F 94% 29.95 in 2.5 mi Calm Calm - N/A   Clear
5:42 AM 71.6 °F - 68.0 °F 88% 29.95 in 4.0 mi Calm Calm - N/A   Clear
5:52 AM 69.8 °F - 68.0 °F 94% 29.95 in 1.8 mi Calm Calm - N/A   Partly Cloudy
5:56 AM 70.0 °F - 68.0 °F 93% 29.96 in 0.2 mi Calm Calm - N/A Fog Fog
6:17 AM 71.6 °F - 69.8 °F 94% 29.96 in 1.0 mi Calm Calm - N/A   Mist
6:21 AM 71.6 °F - 69.8 °F 94% 29.96 in 2.0 mi Calm Calm - N/A   Scattered Clouds
6:33 AM 71.6 °F - 69.8 °F 94% 29.96 in 4.0 mi Calm Calm - N/A   Partly Cloudy
6:56 AM 73.9 °F - 71.1 °F 91% 29.97 in 3.0 mi Calm Calm - N/A   Clear
7:11 AM 75.2 °F - 73.4 °F 94% 29.97 in 2.5 mi WSW 3.5 mph - N/A   Scattered Clouds
7:24 AM 75.2 °F - 73.4 °F 94% 29.98 in 3.0 mi SW 3.5 mph - N/A   Scattered Clouds
7:42 AM 75.2 °F - 73.4 °F 94% 29.98 in 2.5 mi SSW 3.5 mph - N/A   Partly Cloudy
7:56 AM 77.0 °F - 73.0 °F 88% 29.98 in 3.0 mi SW 5.8 mph - N/A   Partly Cloudy
8:45 AM 78.8 °F - 73.4 °F 83% 29.98 in 3.0 mi WSW 6.9 mph - N/A   Haze
8:56 AM 78.1 °F - 73.0 °F 84% 29.99 in 3.0 mi WSW 6.9 mph - N/A   Haze
9:56 AM 79.0 °F - 73.9 °F 84% 29.99 in 3.0 mi SW 8.1 mph - N/A   Haze
10:56 AM 80.6 °F 85.4 °F 73.4 °F 79% 30.00 in 4.0 mi SW 10.4 mph - N/A   Haze
11:56 AM 82.0 °F 87.4 °F 73.0 °F 74% 30.01 in 4.0 mi SSW 9.2 mph - N/A   Haze
12:56 PM 82.0 °F 87.4 °F 73.0 °F 74% 30.02 in 4.0 mi SSW 6.9 mph - N/A   Haze
1:56 PM 80.6 °F 85.4 °F 73.4 °F 79% 30.02 in 4.0 mi SSW 5.8 mph - N/A   Haze
2:56 PM 82.0 °F 87.4 °F 73.0 °F 74% 30.02 in 5.0 mi SSW 8.1 mph - N/A   Haze
3:56 PM 80.1 °F 84.2 °F 73.0 °F 79% 30.02 in 5.0 mi SSW 6.9 mph - N/A   Haze
4:56 PM 79.0 °F - 72.0 °F 79% 30.02 in 4.0 mi SSW 8.1 mph - N/A   Haze
5:56 PM 79.0 °F - 73.0 °F 82% 30.03 in 5.0 mi South 5.8 mph - N/A   Haze
6:56 PM 78.1 °F - 72.0 °F 81% 30.04 in 4.0 mi SW 4.6 mph - N/A   Haze
7:56 PM 75.9 °F - 72.0 °F 87% 30.06 in 4.0 mi SW 5.8 mph - N/A   Clear
8:56 PM 75.9 °F - 72.0 °F 87% 30.07 in 5.0 mi SW 4.6 mph - N/A   Clear
9:56 PM 73.0 °F - 70.0 °F 90% 30.08 in 4.0 mi South 3.5 mph - N/A   Clear
10:56 PM 73.0 °F - 70.0 °F 90% 30.09 in 4.0 mi Calm Calm - N/A   Clear
11:56 PM 73.0 °F - 70.0 °F 90% 30.10 in 5.0 mi Calm Calm - N/A   Clear